AMQ725 LICJ-EPKT

Flight info

Callsign AMQ725
Flight time 1h 53m
Altitude 18000
Route ROSAS M742 SOR M725 XOLTA/N0443F370 DCT KEMIX DCT SONIK DCT RUDIK DCT NEKIN DCT KUVEX DCT LALES DCT BAVOK
Aircraft A320/M-SDE3FGHIRWY/LB1

Departure

Time 2026-05-06 17:08
Airport Falcone–Borsellino Airport (LICJ)

Arrival

Time 2026-05-06 19:01
Airport Katowice Wojciech Korfanty International Airport (EPKT)
Time Latitude Longitude Altitude Speed Heading
2026-05-06 16:34 38.18531 13.10558 60 ft 0 kts 337°
2026-05-06 16:58 38.18530 13.10558 60 ft 1 kts 337°
2026-05-06 16:58 38.18517 13.10565 57 ft 3 kts 334°
2026-05-06 16:58 38.18499 13.10577 58 ft 3 kts 327°
2026-05-06 16:58 38.18483 13.10591 56 ft 3 kts 311°
2026-05-06 16:59 38.18473 13.10611 59 ft 3 kts 274°
2026-05-06 16:59 38.18474 13.10623 58 ft 0 kts 247°
2026-05-06 17:03 38.18460 13.10581 54 ft 10 kts 246°
2026-05-06 17:03 38.18431 13.10506 61 ft 9 kts 240°
2026-05-06 17:03 38.18384 13.10479 65 ft 7 kts 185°
2026-05-06 17:04 38.18315 13.10428 63 ft 14 kts 242°
2026-05-06 17:04 38.18228 13.10362 66 ft 15 kts 201°
2026-05-06 17:04 38.18164 13.10215 64 ft 25 kts 248°
2026-05-06 17:04 38.18093 13.10007 64 ft 25 kts 247°
2026-05-06 17:05 38.18025 13.09804 61 ft 24 kts 246°
2026-05-06 17:05 38.17964 13.09618 63 ft 22 kts 248°
2026-05-06 17:05 38.17908 13.09451 63 ft 22 kts 245°
2026-05-06 17:05 38.17818 13.09195 69 ft 28 kts 245°
2026-05-06 17:06 38.17736 13.08958 63 ft 28 kts 236°
2026-05-06 17:06 38.17614 13.08834 60 ft 17 kts 219°
2026-05-06 17:06 38.17527 13.08763 67 ft 11 kts 189°
2026-05-06 17:06 38.17487 13.08804 67 ft 7 kts 91°
2026-05-06 17:07 38.17503 13.08864 61 ft 8 kts 69°
2026-05-06 17:07 38.17547 13.08994 68 ft 37 kts 66°
2026-05-06 17:07 38.17739 13.09563 65 ft 102 kts 66°
2026-05-06 17:07 38.18090 13.10596 62 ft 153 kts 66°
2026-05-06 17:08 38.18563 13.11946 455 ft 163 kts 64°
2026-05-06 17:08 38.19039 13.13254 1127 ft 164 kts 66°
2026-05-06 17:08 38.19491 13.14597 1716 ft 167 kts 69°
2026-05-06 17:08 38.19961 13.15996 2107 ft 183 kts 69°
2026-05-06 17:09 38.20480 13.17560 2403 ft 202 kts 70°
2026-05-06 17:09 38.21092 13.19300 2677 ft 228 kts 58°
2026-05-06 17:09 38.22381 13.20622 2993 ft 259 kts 23°
2026-05-06 17:09 38.24167 13.21222 3671 ft 268 kts 19°
2026-05-06 17:10 38.25930 13.22017 4481 ft 271 kts 25°
2026-05-06 17:10 38.27689 13.22968 5251 ft 277 kts 27°
2026-05-06 17:10 38.29465 13.23977 6028 ft 282 kts 27°
2026-05-06 17:10 38.31276 13.25007 6774 ft 288 kts 26°
2026-05-06 17:11 38.33133 13.26042 7451 ft 294 kts 25°
2026-05-06 17:11 38.35037 13.27082 8135 ft 301 kts 24°
2026-05-06 17:11 38.36987 13.28135 8824 ft 308 kts 24°
2026-05-06 17:11 38.38960 13.29195 9452 ft 316 kts 23°
2026-05-06 17:12 38.41015 13.30294 10073 ft 324 kts 22°
2026-05-06 17:12 38.43153 13.31434 10310 ft 346 kts 22°
2026-05-06 17:12 38.45457 13.32664 10479 ft 369 kts 22°
2026-05-06 17:12 38.47903 13.33968 10711 ft 388 kts 22°
2026-05-06 17:13 38.50416 13.35304 11227 ft 395 kts 22°
2026-05-06 17:13 38.52971 13.36663 11836 ft 400 kts 21°
2026-05-06 17:13 38.55556 13.38041 12450 ft 405 kts 21°
2026-05-06 17:13 38.58178 13.39444 13066 ft 410 kts 21°
2026-05-06 17:14 38.60821 13.40865 13665 ft 415 kts 21°
2026-05-06 17:14 38.63501 13.42309 14204 ft 420 kts 21°
2026-05-06 17:14 38.66206 13.43766 14763 ft 423 kts 20°
2026-05-06 17:14 38.68922 13.45228 15333 ft 426 kts 20°
2026-05-06 17:15 38.71663 13.46706 15898 ft 429 kts 20°
2026-05-06 17:15 38.74422 13.48193 16465 ft 432 kts 19°
2026-05-06 17:15 38.77202 13.49695 17015 ft 435 kts 20°
2026-05-06 17:15 38.79989 13.51206 17672 ft 435 kts 20°
2026-05-06 17:16 38.82786 13.52719 18243 ft 438 kts 20°
2026-05-06 17:16 38.85612 13.54233 18741 ft 441 kts 19°
2026-05-06 17:16 38.88479 13.55645 19237 ft 442 kts 17°
2026-05-06 17:16 38.91385 13.56956 19730 ft 444 kts 15°
2026-05-06 17:17 38.94318 13.58214 20214 ft 446 kts 14°
2026-05-06 17:17 38.97272 13.59467 20691 ft 448 kts 14°
2026-05-06 17:17 39.00236 13.60740 21152 ft 450 kts 15°
2026-05-06 17:17 39.03216 13.62045 21582 ft 454 kts 15°
2026-05-06 17:18 39.06210 13.63380 22014 ft 457 kts 15°
2026-05-06 17:18 39.09217 13.64738 22443 ft 459 kts 15°
2026-05-06 17:18 39.12236 13.66110 22867 ft 462 kts 15°
2026-05-06 17:18 39.15236 13.67474 23279 ft 464 kts 15°
2026-05-06 17:19 39.18289 13.68859 23652 ft 466 kts 15°
2026-05-06 17:19 39.21333 13.70237 24250 ft 460 kts 15°
2026-05-06 17:19 39.24342 13.71600 24783 ft 458 kts 15°
2026-05-06 17:19 39.27330 13.72955 25393 ft 452 kts 15°
2026-05-06 17:20 39.30286 13.74293 25922 ft 449 kts 15°
2026-05-06 17:20 39.33244 13.75627 26338 ft 450 kts 15°
2026-05-06 17:20 39.36199 13.76960 26708 ft 451 kts 15°
2026-05-06 17:20 39.39169 13.78301 27072 ft 453 kts 15°
2026-05-06 17:21 39.42152 13.79652 27420 ft 455 kts 15°
2026-05-06 17:21 39.45145 13.81014 27757 ft 457 kts 15°
2026-05-06 17:21 39.48153 13.82385 28074 ft 459 kts 15°
2026-05-06 17:21 39.51176 13.83764 28404 ft 461 kts 15°
2026-05-06 17:22 39.54210 13.85155 28717 ft 463 kts 15°
2026-05-06 17:22 39.57251 13.86560 29078 ft 463 kts 15°
2026-05-06 17:22 39.60283 13.87963 29572 ft 461 kts 15°
2026-05-06 17:22 39.63299 13.89356 30025 ft 460 kts 15°
2026-05-06 17:23 39.66275 13.90725 30397 ft 459 kts 15°
2026-05-06 17:23 39.69284 13.92106 30743 ft 458 kts 15°
2026-05-06 17:23 39.72289 13.93484 31094 ft 458 kts 15°
2026-05-06 17:23 39.75288 13.94859 31519 ft 454 kts 15°
2026-05-06 17:24 39.78244 13.96223 32086 ft 449 kts 15°
2026-05-06 17:24 39.81179 13.97581 32407 ft 450 kts 15°
2026-05-06 17:24 39.84155 13.98953 32534 ft 455 kts 15°
2026-05-06 17:24 39.87150 14.00333 32668 ft 460 kts 15°
2026-05-06 17:25 39.90190 14.01734 32799 ft 464 kts 15°
2026-05-06 17:25 39.93231 14.03139 32934 ft 469 kts 15°
2026-05-06 17:25 39.96330 14.04578 33068 ft 472 kts 15°
2026-05-06 17:25 39.99433 14.06023 33208 ft 476 kts 15°
2026-05-06 17:26 40.02565 14.07481 33335 ft 479 kts 15°
2026-05-06 17:26 40.05711 14.08949 33494 ft 482 kts 15°
2026-05-06 17:26 40.08875 14.10425 33630 ft 484 kts 15°
2026-05-06 17:26 40.12060 14.11910 33800 ft 486 kts 15°
2026-05-06 17:27 40.15249 14.13395 34021 ft 486 kts 15°
2026-05-06 17:27 40.18392 14.14859 34241 ft 486 kts 15°
2026-05-06 17:27 40.21609 14.16362 34460 ft 485 kts 15°
2026-05-06 17:27 40.24743 14.17824 34690 ft 484 kts 15°
2026-05-06 17:28 40.27917 14.19305 34913 ft 484 kts 15°
2026-05-06 17:28 40.31084 14.20784 35106 ft 484 kts 15°
2026-05-06 17:28 40.34253 14.22264 35303 ft 482 kts 15°
2026-05-06 17:28 40.37404 14.23740 35568 ft 480 kts 15°
2026-05-06 17:29 40.40537 14.25206 35802 ft 478 kts 15°
2026-05-06 17:29 40.43666 14.26669 35998 ft 477 kts 15°
2026-05-06 17:29 40.46789 14.28129 36207 ft 476 kts 15°
2026-05-06 17:29 40.49905 14.29586 36396 ft 474 kts 15°
2026-05-06 17:30 40.53012 14.31041 36572 ft 474 kts 15°
2026-05-06 17:30 40.56121 14.32498 36737 ft 473 kts 15°
2026-05-06 17:30 40.59184 14.34095 36922 ft 475 kts 21°
2026-05-06 17:31 40.65142 14.37934 37021 ft 478 kts 21°
2026-05-06 17:31 40.71108 14.41785 37020 ft 477 kts 21°
2026-05-06 17:32 40.77040 14.45623 37013 ft 477 kts 21°
2026-05-06 17:32 40.83002 14.49493 37029 ft 477 kts 21°
2026-05-06 17:33 40.88970 14.53374 37047 ft 478 kts 21°
2026-05-06 17:33 40.94945 14.57250 37025 ft 479 kts 21°
2026-05-06 17:34 41.00928 14.61138 37020 ft 479 kts 21°
2026-05-06 17:34 41.06912 14.65058 37030 ft 480 kts 21°
2026-05-06 17:35 41.12899 14.68988 37019 ft 480 kts 21°
2026-05-06 17:35 41.17882 14.72253 37010 ft 481 kts 21°
2026-05-06 17:36 41.26905 14.78190 37019 ft 482 kts 21°
2026-05-06 17:36 41.32873 14.82142 37005 ft 483 kts 21°
2026-05-06 17:37 41.38903 14.86118 37005 ft 484 kts 21°
2026-05-06 17:37 41.44936 14.90085 37009 ft 484 kts 21°
2026-05-06 17:38 41.50980 14.94074 36976 ft 484 kts 21°
2026-05-06 17:38 41.57017 14.98067 36985 ft 484 kts 21°
2026-05-06 17:39 41.63041 15.02072 36992 ft 483 kts 21°
2026-05-06 17:39 41.69064 15.06090 36975 ft 484 kts 21°
2026-05-06 17:40 41.75097 15.10107 36958 ft 484 kts 21°
2026-05-06 17:40 41.81129 15.14133 36949 ft 485 kts 21°
2026-05-06 17:41 41.87126 15.18148 36943 ft 484 kts 21°
2026-05-06 17:41 41.93154 15.22191 36943 ft 484 kts 21°
2026-05-06 17:42 41.99187 15.26247 36940 ft 484 kts 21°
2026-05-06 17:42 42.05216 15.30313 36927 ft 485 kts 21°
2026-05-06 17:43 42.11243 15.34385 36935 ft 484 kts 21°
2026-05-06 17:43 42.17272 15.38459 36937 ft 484 kts 21°
2026-05-06 17:44 42.23289 15.42537 36944 ft 484 kts 21°
2026-05-06 17:44 42.29273 15.46608 36935 ft 485 kts 21°
2026-05-06 17:45 42.35303 15.50722 36932 ft 485 kts 21°
2026-05-06 17:45 42.41333 15.54838 36929 ft 486 kts 21°
2026-05-06 17:46 42.47378 15.58975 36916 ft 487 kts 21°
2026-05-06 17:46 42.53429 15.63133 36924 ft 488 kts 21°
2026-05-06 17:47 42.59484 15.67311 36943 ft 488 kts 21°
2026-05-06 17:47 42.65535 15.71485 36943 ft 488 kts 21°
2026-05-06 17:48 42.71675 15.75091 36954 ft 478 kts
2026-05-06 17:48 42.78113 15.77033 36953 ft 473 kts
2026-05-06 17:49 42.84572 15.78884 36964 ft 474 kts
2026-05-06 17:49 42.91024 15.80749 36964 ft 474 kts
2026-05-06 17:50 42.97475 15.82616 36982 ft 474 kts
2026-05-06 17:50 43.03932 15.84480 36976 ft 474 kts
2026-05-06 17:51 43.10390 15.86353 36976 ft 474 kts
2026-05-06 17:51 43.16846 15.88243 36990 ft 474 kts
2026-05-06 17:52 43.23292 15.90118 36990 ft 474 kts
2026-05-06 17:52 43.29699 15.91973 36989 ft 473 kts
2026-05-06 17:53 43.36163 15.93591 37015 ft 469 kts
2026-05-06 17:53 43.42623 15.94727 37028 ft 467 kts
2026-05-06 17:54 43.49080 15.95803 37040 ft 468 kts
2026-05-06 17:54 43.55540 15.96997 37035 ft 468 kts
2026-05-06 17:55 43.61993 15.98258 37021 ft 468 kts
2026-05-06 17:55 43.68392 15.99505 37020 ft 467 kts
2026-05-06 17:56 43.74822 16.00735 37022 ft 466 kts
2026-05-06 17:56 43.81242 16.01968 37023 ft 465 kts
2026-05-06 17:57 43.87659 16.03208 37033 ft 465 kts
2026-05-06 17:57 43.94068 16.04441 37027 ft 464 kts
2026-05-06 17:58 44.00470 16.05683 37027 ft 465 kts
2026-05-06 17:58 44.06890 16.06925 37020 ft 466 kts
2026-05-06 17:59 44.13277 16.08160 37006 ft 467 kts
2026-05-06 17:59 44.19723 16.09413 36997 ft 468 kts
2026-05-06 18:00 44.26168 16.10672 37009 ft 468 kts
2026-05-06 18:00 44.32631 16.11936 36994 ft 469 kts
2026-05-06 18:01 44.39100 16.13209 36983 ft 470 kts
2026-05-06 18:01 44.45575 16.14502 37008 ft 471 kts
2026-05-06 18:02 44.52030 16.16207 36998 ft 473 kts
2026-05-06 18:02 44.58465 16.18239 36980 ft 474 kts
2026-05-06 18:03 44.64896 16.20250 36990 ft 473 kts
2026-05-06 18:03 44.71327 16.22141 36984 ft 472 kts
2026-05-06 18:04 44.77761 16.24005 36968 ft 472 kts
2026-05-06 18:04 44.84180 16.25891 36962 ft 471 kts
2026-05-06 18:05 44.90549 16.27787 36965 ft 470 kts
2026-05-06 18:05 44.96936 16.29694 36955 ft 469 kts
2026-05-06 18:06 45.03325 16.31569 36964 ft 468 kts
2026-05-06 18:06 45.09722 16.33318 36955 ft 467 kts
2026-05-06 18:07 45.16105 16.35034 36967 ft 467 kts
2026-05-06 18:07 45.22491 16.36792 36949 ft 467 kts
2026-05-06 18:08 45.28879 16.38576 36940 ft 467 kts
2026-05-06 18:08 45.35218 16.40349 36937 ft 467 kts
2026-05-06 18:09 45.41593 16.42130 36940 ft 466 kts
2026-05-06 18:09 45.47954 16.43912 36937 ft 466 kts
2026-05-06 18:10 45.54323 16.45699 36938 ft 466 kts
2026-05-06 18:10 45.60683 16.47482 36936 ft 465 kts
2026-05-06 18:11 45.67035 16.49271 36935 ft 465 kts
2026-05-06 18:11 45.73350 16.51047 36933 ft 465 kts
2026-05-06 18:12 45.79702 16.52845 36939 ft 465 kts
2026-05-06 18:12 45.86058 16.54652 36935 ft 465 kts
2026-05-06 18:13 45.92412 16.56457 36933 ft 465 kts
2026-05-06 18:13 45.98767 16.58267 36935 ft 465 kts
2026-05-06 18:14 46.05123 16.60087 36914 ft 466 kts
2026-05-06 18:14 46.11494 16.61914 36913 ft 467 kts
2026-05-06 18:15 46.17823 16.63718 36917 ft 467 kts
2026-05-06 18:15 46.24213 16.65550 36901 ft 468 kts
2026-05-06 18:16 46.30609 16.67403 36895 ft 469 kts
2026-05-06 18:16 46.36979 16.69256 36898 ft 469 kts
2026-05-06 18:17 46.43326 16.71557 36904 ft 472 kts 15°
2026-05-06 18:17 46.49567 16.74528 36902 ft 472 kts 15°
2026-05-06 18:18 46.55813 16.77513 36916 ft 472 kts 15°
2026-05-06 18:18 46.62004 16.80480 36918 ft 472 kts 15°
2026-05-06 18:19 46.68245 16.83473 36905 ft 472 kts 15°
2026-05-06 18:19 46.74491 16.86477 36897 ft 472 kts 15°
2026-05-06 18:20 46.80733 16.89486 36901 ft 473 kts 15°
2026-05-06 18:20 46.86985 16.92486 36892 ft 473 kts 15°
2026-05-06 18:21 46.93245 16.95507 36884 ft 473 kts 15°
2026-05-06 18:21 46.99503 16.98552 36870 ft 474 kts 15°
2026-05-06 18:22 47.05777 17.01607 36861 ft 475 kts 15°
2026-05-06 18:22 47.12019 17.04649 36859 ft 475 kts 15°
2026-05-06 18:23 47.18301 17.07723 36864 ft 476 kts 15°
2026-05-06 18:23 47.24608 17.10821 36837 ft 478 kts 15°
2026-05-06 18:24 47.30929 17.13932 36834 ft 480 kts 15°
2026-05-06 18:24 47.36200 17.16525 36842 ft 481 kts 15°
2026-05-06 18:25 47.42548 17.19653 36848 ft 481 kts 15°
2026-05-06 18:25 47.48899 17.22799 36853 ft 482 kts 15°
2026-05-06 18:26 47.55258 17.25961 36849 ft 482 kts 15°
2026-05-06 18:26 47.61614 17.29120 36839 ft 482 kts 15°
2026-05-06 18:27 47.67985 17.32287 36844 ft 482 kts 15°
2026-05-06 18:27 47.74424 17.34896 36845 ft 479 kts
2026-05-06 18:28 47.80944 17.36849 36846 ft 477 kts
2026-05-06 18:28 47.84178 17.37819 36592 ft 471 kts
2026-05-06 18:28 47.87389 17.38785 35853 ft 471 kts
2026-05-06 18:29 47.90605 17.39753 35090 ft 472 kts
2026-05-06 18:29 47.93837 17.40739 34326 ft 473 kts
2026-05-06 18:29 47.97071 17.41758 33544 ft 475 kts
2026-05-06 18:29 48.00302 17.42798 32648 ft 477 kts
2026-05-06 18:30 48.03510 17.43843 31743 ft 479 kts
2026-05-06 18:30 48.06807 17.44916 30829 ft 481 kts
2026-05-06 18:30 48.10041 17.45960 30134 ft 482 kts
2026-05-06 18:30 48.13329 17.47020 29879 ft 485 kts
2026-05-06 18:31 48.16629 17.48089 29740 ft 485 kts
2026-05-06 18:31 48.19944 17.49163 29790 ft 488 kts
2026-05-06 18:31 48.26588 17.51323 29786 ft 489 kts
2026-05-06 18:32 48.33249 17.53486 29787 ft 489 kts
2026-05-06 18:32 48.39905 17.55641 29806 ft 489 kts
2026-05-06 18:33 48.46570 17.57800 29792 ft 491 kts
2026-05-06 18:33 48.53262 17.59989 29790 ft 492 kts
2026-05-06 18:34 48.59910 17.62166 29791 ft 491 kts
2026-05-06 18:34 48.66589 17.64361 29792 ft 491 kts
2026-05-06 18:35 48.73275 17.66568 29782 ft 492 kts
2026-05-06 18:35 48.79972 17.68787 29785 ft 493 kts
2026-05-06 18:36 48.86672 17.71006 29779 ft 493 kts
2026-05-06 18:36 48.93342 17.73570 29786 ft 495 kts 12°
2026-05-06 18:37 48.99961 17.76480 29791 ft 495 kts 13°
2026-05-06 18:37 49.06580 17.79385 29788 ft 495 kts 12°
2026-05-06 18:38 49.13187 17.82173 29790 ft 495 kts 11°
2026-05-06 18:38 49.19831 17.84941 29633 ft 493 kts 12°
2026-05-06 18:39 49.23143 17.86328 29321 ft 494 kts 12°
2026-05-06 18:39 49.26461 17.87728 29056 ft 495 kts 12°
2026-05-06 18:39 49.29787 17.89142 28779 ft 496 kts 12°
2026-05-06 18:40 49.36435 17.91980 28223 ft 496 kts 12°
2026-05-06 18:40 49.39757 17.93397 27957 ft 494 kts 12°
2026-05-06 18:40 49.43062 17.94807 27685 ft 493 kts 12°
2026-05-06 18:40 49.46360 17.96216 27420 ft 491 kts 12°
2026-05-06 18:41 49.49644 17.97620 27169 ft 490 kts 12°
2026-05-06 18:41 49.52920 17.99022 26795 ft 487 kts 12°
2026-05-06 18:41 49.56164 18.00414 25969 ft 484 kts 13°
2026-05-06 18:41 49.59400 18.01808 25214 ft 481 kts 13°
2026-05-06 18:42 49.62622 18.03198 24476 ft 478 kts 13°
2026-05-06 18:42 49.65821 18.04574 23740 ft 475 kts 13°
2026-05-06 18:42 49.69000 18.05942 22954 ft 473 kts 13°
2026-05-06 18:42 49.72114 18.07284 22259 ft 468 kts 13°
2026-05-06 18:43 49.75235 18.08636 21580 ft 464 kts 13°
2026-05-06 18:43 49.78336 18.09982 20941 ft 459 kts 13°
2026-05-06 18:43 49.81402 18.11314 20317 ft 455 kts 13°
2026-05-06 18:43 49.84427 18.12629 19720 ft 450 kts 13°
2026-05-06 18:44 49.87435 18.13937 19149 ft 446 kts 14°
2026-05-06 18:44 49.90408 18.15228 18597 ft 442 kts 14°
2026-05-06 18:44 49.93357 18.16513 18050 ft 439 kts 14°
2026-05-06 18:44 49.96265 18.17923 17465 ft 435 kts 20°
2026-05-06 18:45 49.98952 18.20045 16921 ft 432 kts 32°
2026-05-06 18:45 50.01314 18.22890 16467 ft 426 kts 44°
2026-05-06 18:45 50.03267 18.26283 16102 ft 418 kts 54°
2026-05-06 18:45 50.04709 18.30156 15823 ft 413 kts 65°
2026-05-06 18:46 50.05975 18.34094 15580 ft 411 kts 65°
2026-05-06 18:46 50.07256 18.38058 15328 ft 409 kts 65°
2026-05-06 18:46 50.08533 18.42010 15087 ft 408 kts 65°
2026-05-06 18:46 50.09803 18.45953 14844 ft 406 kts 65°
2026-05-06 18:47 50.11062 18.49882 14600 ft 405 kts 65°
2026-05-06 18:47 50.12315 18.53812 14357 ft 404 kts 65°
2026-05-06 18:47 50.13563 18.57730 14121 ft 402 kts 65°
2026-05-06 18:47 50.14802 18.61632 13887 ft 401 kts 65°
2026-05-06 18:48 50.16033 18.65516 13640 ft 399 kts 66°
2026-05-06 18:48 50.17259 18.69397 13381 ft 398 kts 66°
2026-05-06 18:48 50.18477 18.73258 13116 ft 396 kts 66°
2026-05-06 18:48 50.19689 18.77109 12860 ft 394 kts 66°
2026-05-06 18:49 50.20895 18.80945 12595 ft 393 kts 66°
2026-05-06 18:49 50.22094 18.84758 12339 ft 391 kts 66°
2026-05-06 18:49 50.23289 18.88565 12085 ft 389 kts 66°
2026-05-06 18:49 50.24481 18.92363 11828 ft 388 kts 66°
2026-05-06 18:50 50.25664 18.96140 11582 ft 386 kts 66°
2026-05-06 18:50 50.26846 18.99911 11332 ft 385 kts 66°
2026-05-06 18:50 50.28017 19.03654 11090 ft 383 kts 66°
2026-05-06 18:50 50.29185 19.07397 10839 ft 382 kts 66°
2026-05-06 18:51 50.30347 19.11130 10597 ft 379 kts 66°
2026-05-06 18:51 50.31466 19.14733 10358 ft 367 kts 66°
2026-05-06 18:51 50.32568 19.18274 10110 ft 356 kts 66°
2026-05-06 18:51 50.33635 19.21709 9906 ft 345 kts 67°
2026-05-06 18:52 50.34663 19.25026 9781 ft 332 kts 67°
2026-05-06 18:52 50.35650 19.28222 9645 ft 321 kts 67°
2026-05-06 18:52 50.36601 19.31312 9513 ft 310 kts 67°
2026-05-06 18:52 50.37512 19.34274 9372 ft 291 kts 67°
2026-05-06 18:53 50.38317 19.37109 9178 ft 281 kts 76°
2026-05-06 18:53 50.38670 19.40081 8760 ft 276 kts 93°
2026-05-06 18:53 50.38650 19.43095 8306 ft 278 kts 96°
2026-05-06 18:53 50.38652 19.46145 7844 ft 283 kts 89°
2026-05-06 18:54 50.39349 19.49060 7358 ft 295 kts 54°
2026-05-06 18:54 50.40966 19.51018 6832 ft 299 kts 19°
2026-05-06 18:54 50.42997 19.51546 6299 ft 297 kts 353°
2026-05-06 18:54 50.44926 19.50685 5860 ft 276 kts 324°
2026-05-06 18:55 50.46320 19.48899 5674 ft 245 kts 302°
2026-05-06 18:55 50.47138 19.46750 5458 ft 222 kts 283°
2026-05-06 18:55 50.47447 19.44498 5209 ft 202 kts 265°
2026-05-06 18:55 50.47463 19.42411 4996 ft 181 kts 264°
2026-05-06 18:56 50.47475 19.40518 4744 ft 166 kts 264°
2026-05-06 18:56 50.47485 19.38795 4552 ft 150 kts 263°
2026-05-06 18:56 50.47492 19.37218 4338 ft 142 kts 263°
2026-05-06 18:56 50.47498 19.35676 4163 ft 141 kts 263°
2026-05-06 18:57 50.47503 19.34111 3991 ft 151 kts 264°
2026-05-06 18:57 50.47510 19.32401 3783 ft 160 kts 264°
2026-05-06 18:57 50.47519 19.30644 3563 ft 162 kts 265°
2026-05-06 18:57 50.47527 19.28869 3356 ft 163 kts 265°
2026-05-06 18:58 50.47535 19.27098 3140 ft 158 kts 266°
2026-05-06 18:58 50.47544 19.25437 2938 ft 148 kts 265°
2026-05-06 18:58 50.47550 19.23846 2746 ft 144 kts 265°
2026-05-06 18:58 50.47555 19.22289 2560 ft 145 kts 265°
2026-05-06 18:59 50.47561 19.20682 2374 ft 148 kts 265°
2026-05-06 18:59 50.47566 19.19066 2179 ft 148 kts 266°
2026-05-06 18:59 50.47572 19.17447 1977 ft 150 kts 268°
2026-05-06 18:59 50.47578 19.15817 1782 ft 150 kts 266°
2026-05-06 19:00 50.47582 19.14182 1576 ft 150 kts 267°
2026-05-06 19:00 50.47596 19.12523 1351 ft 153 kts 266°
2026-05-06 19:00 50.47597 19.10863 1194 ft 152 kts 265°
2026-05-06 19:00 50.47589 19.09753 1041 ft 150 kts 267°
2026-05-06 19:01 50.47604 19.07914 988 ft 95 kts 270°
2026-05-06 19:01 50.47597 19.07192 987 ft 33 kts 253°
2026-05-06 19:01 50.47537 19.06987 986 ft 0 kts 243°
2026-05-06 19:03 50.47525 19.06952 991 ft 11 kts 241°
2026-05-06 19:04 50.47487 19.06846 986 ft 13 kts 242°
2026-05-06 19:04 50.47437 19.06707 985 ft 17 kts 239°
2026-05-06 19:04 50.47385 19.06627 986 ft 6 kts 198°
2026-05-06 19:04 50.47356 19.06628 983 ft 3 kts 179°
2026-05-06 19:05 50.47300 19.06630 983 ft 13 kts 179°
2026-05-06 19:05 50.47244 19.06679 982 ft 11 kts 114°
2026-05-06 19:05 50.47238 19.06807 984 ft 12 kts 85°
2026-05-06 19:05 50.47244 19.06943 985 ft 6 kts 87°
2026-05-06 19:06 50.47245 19.06972 986 ft 0 kts 87°
2026-05-06 19:06 50.47246 19.07013 988 ft 10 kts 90°
2026-05-06 19:06 50.47240 19.07132 984 ft 11 kts 94°
2026-05-06 19:06 50.47234 19.07247 985 ft 9 kts 94°
2026-05-06 19:07 50.47217 19.07296 990 ft 3 kts 186°
2026-05-06 19:07 50.47207 19.07290 993 ft 2 kts 210°
2026-05-06 19:07 50.47196 19.07277 987 ft 3 kts 213°
2026-05-06 19:07 50.47174 19.07271 988 ft 2 kts 184°
2026-05-06 19:08 50.47173 19.07271 987 ft 0 kts 182°